sat.trackr.live / text

‹ back to catalog

STARLINK-35111

NORAD 65463 · 2025-195F

PAYLOAD ACTIVE UNKNOWN

§ Identity

Operator
Country
US
Launch date
2025-09-03
Launch site
AFETR
Launch vehicle
Mass (kg)
RCS (m²)

Purposes: comms

External: N2YO · Heavens-Above · Gunter

§ Orbital elements

Epoch: 2026-05-24T18:08:48.307488Z

Period
94.10 min
Inclination
53.1583°
Eccentricity
0.0000965
Mean motion
15.30206930 rev/d
Perigee alt
474.5 km
Apogee alt
475.9 km
Semi-major
6,853.3 km
B*
4.8657e-4
RAAN
264.5868°
Arg perigee
87.4143°
Mean anomaly
272.6969°
Rev number
4,164

§ Raw data

STARLINK-351111 65463U 25195F   26144.75611467  .00014082  00000+0  48657-3 0  99972 65463  53.1583 264.5868 0000965  87.4143 272.6969 15.30206930 41642

JSON: /api/v1/satellites/65463 · /tle

For live sub-satellite position, see the globe view (requires WebGL).

§ Visibility from observer

Set your observer location to see the next 7 days of passes ≥ 10°. The values pass through the URL so the page stays shareable.

No JS? Fill the form by hand. The geolocation button needs JavaScript.